PAYLOAD B (49113 NORAD) Tracking and Keplerian Element Data

This shows tracking and keplerian element data for the satellite.

Feedback or suggestion? Click here.




ElementValue
Catalog49113
NamePAYLOAD B
Epoch Orbit899
Epoch Day300.87487263
Epoch Year2021
RAAN40.6182
Inclination86.4081
Eccentricity0.0021902
Argument of Perigee105.4266
Mean Anonmoly254.9337
Mean Motion14.08585309
Decay Rate-7.1E-07
L11 49113U 21076B 21300.87487263 -.00000071 00000-0 -52421-4 0 9993
L22 49113 86.4081 40.6182 0021902 105.4266 254.9337 14.08585309 8998

Live tracking and technical data element details for PAYLOAD B (NORAD 49113). PAYLOAD B can be tracked NOW for your location showing map with azimuth and elevation plus other details from your city location.

Track the satellite on the map from your city or location and see movement details for azimuth, elevation, latitude, longitude, range, height, and movement on the map or in text.







IsCatalogInMostPopularTable: catalog: 49113, numindb: 11
Update: records affected: 1



GetName: 49113 PAYLOAD B

Hit Count: updated at: Thu, 28 Oct 2021 12:28:00 GMT